sat.trackr.live / text

‹ back to catalog

TIANQI-28

NORAD 59912 · 2024-102D

PAYLOAD ACTIVE UNKNOWN

§ Identity

Operator
Country
PRC
Launch date
2024-05-29
Launch site
YSLA
Launch vehicle
Mass (kg)
RCS (m²)

External: N2YO · Heavens-Above · Gunter

§ Orbital elements

Epoch: 2026-09-22T21:14:48.032160Z

Period
102.92 min
Inclination
44.9781°
Eccentricity
0.0012809
Mean motion
13.99192740 rev/d
Perigee alt
887.3 km
Apogee alt
905.9 km
Semi-major
7,274.7 km
B*
1.0097e-4
RAAN
186.9391°
Arg perigee
348.7006°
Mean anomaly
11.3538°
Rev number
11,858

§ Raw data

TIANQI-281 59912U 24102D   26265.88527815  .00000019  00000+0  10097-3 0  99992 59912  44.9781 186.9391 0012809 348.7006  11.3538 13.99192740118585

JSON: /api/v1/satellites/59912 · /tle

For live sub-satellite position, see the globe view (requires WebGL).

§ Visibility from observer

Set your observer location to see the next 7 days of passes ≥ 10°. The values pass through the URL so the page stays shareable.

No JS? Fill the form by hand. The geolocation button needs JavaScript.